Location: Newark
(47.7394°N, 8.0008°E)
Time: 11:20:51
(UTC+00:00)

N. Korean satellite - Pass Details

Date: 18 December 2019
Orbit: 454 x 508 km, 97.2° (Epoch: 17 January)

Event Time Altitude Azimuth Distance (km) Brightness Sun altitude
Rises 16:54:32 0° 185° (S) 2,589 10.6 -12.3°
Reaches altitude 10° 16:56:44 10° 194° (SSW) 1,704 9.8 -12.7°
Maximum altitude 17:00:10 36° 263° (W) 797 8.3 -13.2°
Drops below altitude 10° 17:03:34 10° 331° (NNW) 1,694 9.4 -13.7°
Sets 17:05:45 0° 340° (NNW) 2,572 10.3 -14.1°
